This is the latest recevied weather packets stored in our database for station/object PP5FMM-13. If no packets are shown the sender has not sent any weather packets the latest 10 day(s).
| Time | Temp. | Humidity | Pressure | Rain* | Wind** | Luminosity | Snow |
|---|---|---|---|---|---|---|---|
| 1777768531 | 25° C | 86% | 1019.2 hPa | - | - | - | - |
| 1777768231 | 25° C | 87% | 1019.1 hPa | - | - | - | - |
| 1777767931 | 25° C | 92% | 1019 hPa | - | - | - | - |
| 1777767631 | 25° C | 85% | 1019 hPa | - | - | - | - |
| 1777767331 | 25° C | 86% | 1019 hPa | - | - | - | - |
| 1777767031 | 25° C | 87% | 1018.7 hPa | - | - | - | - |
| 1777766731 | 25° C | 88% | 1018.7 hPa | - | - | - | - |
| 1777766431 | 25° C | 89% | 1018.6 hPa | - | - | - | - |
| 1777766131 | 25° C | 87% | 1018.7 hPa | - | - | - | - |
| 1777765831 | 25° C | 88% | 1018.6 hPa | - | - | - | - |
| 1777765531 | 25° C | 88% | 1018.6 hPa | - | - | - | - |
| 1777765231 | 25° C | 90% | 1018.4 hPa | - | - | - | - |
| 1777764931 | 25° C | 89% | 1018.5 hPa | - | - | - | - |
| 1777764631 | 25° C | 90% | 1018.4 hPa | - | - | - | - |
| 1777764331 | 25° C | 90% | 1018.3 hPa | - | - | - | - |
| 1777764031 | 25° C | 92% | 1018.2 hPa | - | - | - | - |
| 1777763731 | 25° C | 91% | 1018.2 hPa | - | - | - | - |
| 1777763431 | 25° C | 91% | 1018.1 hPa | - | - | - | - |
| 1777763131 | 25° C | 90% | 1018.1 hPa | - | - | - | - |
| 1777762831 | 25° C | 90% | 1018 hPa | - | - | - | - |
| 1777762531 | 25° C | 89% | 1018 hPa | - | - | - | - |
| 1777762231 | 25° C | 90% | 1017.7 hPa | - | - | - | - |
| 1777761631 | 25° C | 89% | 1017.5 hPa | - | - | - | - |
| 1777761331 | 25° C | 92% | 1017.4 hPa | - | - | - | - |
| 1777761031 | 25° C | 89% | 1017.4 hPa | - | - | - | - |
* Rain since midnight (hover to see other rain measurements)
** Current wind speed in m/s (hover to see current wind gust speed)